Starlink 6274

operational
NORAD ID: 56776 Int'l Des: 2023-078 Owner: SPXS Country: US Constellation: starlink
LEOCIRCULAR

Starlink 6274について

説明を読み込み中...

リアルタイム位置

3D地球を読み込み中...

次回通過

高度履歴

Altitude vs Time

uPlot chart will show altitude changes over time

軌道要素

1 56776U 23078K 25308.14507419 .00000546 00000-0 53520-4 0 9994
2 56776 69.9979 281.1775 0003079 269.8239 90.2567 14.98330134134363
Epoch: Nov 4, 2025 • Age: 6 hours

現在のステータス

高度 574.6 km
速度 7.57 km/s
衛星直下点 -0.88°S, 87.99°E
打ち上げ日 May 31, 2023
運用期間 2.4 years
タイプ internet

技術仕様

分類 Payload
質量 305.00 kg
乾燥質量 290.00 kg
総質量 305.00 kg
長さ 0.20 m
直径 2.80 m
スパン 9.00 m
形状 Box + pan
製造者 SPXS
バスタイプ Starlink
フェーズステータス In Orbit
所有者/国 SPXS/US

大規模コンステレーション

Loading constellations...